Dewpoint
61 60 62 61 61 60 59 58 57 57 57 55 55 56 55 55 53 51 50 49 48 47
61 61 61 61 60 60 59 57 56 56 56 55 54 54 53 52 52 51 50 49 49 46
61 62 62 61 60 59 58 57 55 55 54 53 52 51 52 51 52 51 50 49 46 42
61 61 61 60 59 59 57 56 55 54 53 52 51 52 51 51 50 50 49 47 45 41
60 60 60 60 59 58 57 56 56 54 51 51 51 52 51 49 48 49 47 46 45 42
59 59 58 57 56 57 56 56 54 52 50 49 51 51 50 47 48 47 45 44 43 40
57 57 57 57 57 56 56 54 53 52 51 51 52 50 49 48 45 44 42 42 39 38
56 56 56 56 56 55 54 54 53 53 52 52 51 49 46 44 42 41 40 40 38 39
55 56 56 54 53 52 53 53 53 51 51 49 49 43 42 40 40 39 38 38 36 37
51 51 52 52 52 52 52 51 50 49 48 47 46 42 39 38 38 37 38 36 34 31
50 49 51 51 50 50 49 50 49 49 49 48 46 39 40 36 38 38 38 35 33 32
49 48 48 48 48 49 48 48 48 49 47 48 47 41 39 37 37 37 37 36 34 33
46 47 47 47 46 47 47 47 48 49 48 46 45 39 38 37 37 36 37 37 36 34
45 44 45 46 46 46 46 46 46 47 47 47 44 40 37 36 36 35 36 36 36 34
Lifted_Index
-2 -2 -2 -2 -2 -2 -2 -2 -2 -1 -1 -1 -0 -0 0 0 -0 -0 0 2 3 3
-2 -2 -2 -2 -2 -2 -2 -2 -2 -1 -1 -1 -1 -1 -0 -0 -0 -0 1 2 3 4
-2 -2 -3 -3 -3 -3 -2 -2 -2 -2 -1 -1 -1 -1 -1 -0 -0 0 1 3 4 5
-2 -3 -3 -4 -3 -3 -3 -3 -2 -2 -1 -1 -1 -1 -1 -0 -0 1 2 4 5 6
-2 -3 -3 -3 -4 -4 -3 -3 -2 -2 -1 -1 -0 -0 -0 -0 0 1 2 4 6 7
-2 -2 -2 -3 -3 -3 -3 -3 -2 -2 -1 -0 -0 -0 -0 -0 0 1 3 6 8 8
-1 -0 -0 -0 -1 -2 -2 -2 -2 -1 -1 -0 -0 -0 -0 -0 0 2 4 7 10 11
-0 1 2 2 2 1 -0 -0 -0 -0 0 -0 -0 -0 -0 -0 1 2 4 8 11 13
-0 1 3 3 3 2 2 1 1 1 1 1 -0 -1 -0 0 1 3 5 8 11 12
-0 1 2 2 2 2 2 1 0 1 1 0 -0 -0 0 1 3 4 6 8 10 11
1 1 1 1 1 1 1 -0 -0 0 0 -0 -1 -0 1 2 3 5 7 8 10 12
2 2 2 2 2 1 1 0 0 0 0 0 -0 0 2 2 3 4 5 6 9 12
5 4 3 3 3 2 2 1 1 1 1 1 1 1 2 2 2 2 3 4 8 11
7 6 5 4 4 3 2 2 2 2 2 2 1 1 1 1 2 2 2 4 8 11